EW1707 Weather Reports


time (UTC)temp
C
wind
direction
speed
KPH
gust
KPH
rain 1hr
cm
rain 24hr
cm
rain mn
cm
humidity
%
barometer
mb
20220812171536 22 360 0.0 11.3 0.00 0.00 0.00 41 1015.5
20220812170039 22 360 3.2 14.5 0.00 0.00 0.00 43 1015.8
20220812164511 21 360 4.8 14.5 0.00 0.00 0.00 45 1015.8
20220812163007 20 360 4.8 16.1 0.00 0.00 0.00 46 1016.0
20220812161503 20 360 3.2 14.5 0.00 0.00 0.00 47 1015.9
20220812160001 20 360 1.6 12.9 0.00 0.00 0.00 47 1016.1
20220812154608 19 13 3.2 16.1 0.00 0.00 0.00 49 1016.1
20220812153058 19 360 1.6 9.7 0.00 0.00 0.00 50 1016.1
20220812151557 19 91 4.8 11.3 0.00 0.00 0.00 48 1016.1
20220812150055 18 360 4.8 12.9 0.00 0.00 0.00 48 1016.1
20220812144553 18 360 3.2 12.9 0.00 0.00 0.00 49 1016.0
20220812143100 18 360 3.2 11.3 0.00 0.00 0.00 50 1015.8
20220812141549 18 360 4.8 11.3 0.00 0.00 0.00 52 1015.7
20220812140111 17 360 1.6 9.7 0.00 0.00 0.00 52 1015.5
20220812134554 16 348 1.6 6.4 0.00 0.00 0.00 52 1015.4
20220812133046 16 351 0.0 6.4 0.00 0.00 0.00 55 1015.3
20220812131551 15 360 0.0 6.4 0.00 0.00 0.00 54 1015.2
20220812130055 15 334 0.0 0.0 0.00 0.00 0.00 54 1015.1
20220812124541 15 335 0.0 0.0 0.00 0.00 0.00 52 1015.2
20220812123049 15 360 0.0 0.0 0.00 0.00 0.00 50 1015.1
20220812121547 15 360 1.6 9.7 0.00 0.00 0.00 49 1014.9
20220812120045 15 360 3.2 9.7 0.00 0.00 0.00 48 1014.6
20220812114547 16 360 4.8 16.1 0.00 0.00 0.00 47 1014.6
20220812113047 16 360 6.4 12.9 0.00 0.00 0.00 47 1014.5
20220812111555 16 360 6.4 12.9 0.00 0.00 0.00 46 1014.4
20220812110037 16 360 8.0 16.1 0.00 0.00 0.00 46 1014.3
20220812104535 16 360 8.0 22.5 0.00 0.00 0.00 46 1014.4
20220812103050 16 360 9.7 20.9 0.00 0.00 0.00 46 1014.3
20220812101548 16 286 8.0 19.3 0.00 0.00 0.00 46 1014.3
20220812100033 15 360 9.7 17.7 0.00 0.00 0.00 48 1014.3
20220812094532 15 360 6.4 12.9 0.00 0.00 0.00 48 1014.3
20220812093030 15 360 6.4 12.9 0.00 0.00 0.00 50 1014.3
20220812091545 15 360 6.4 14.5 0.00 0.00 0.00 51 1014.3
20220812090027 15 244 6.4 11.3 0.00 0.00 0.00 52 1014.3
20220812084525 15 360 3.2 12.9 0.00 0.00 0.00 52 1014.2
20220812083031 15 360 6.4 11.3 0.00 0.00 0.00 51 1014.2
20220812081522 15 360 3.2 9.7 0.00 0.00 0.00 49 1014.1
20220812080021 15 360 3.2 11.3 0.00 0.00 0.00 48 1014.3
20220812074522 16 360 6.4 9.7 0.00 0.00 0.00 47 1014.3
20220812073018 16 360 4.8 9.7 0.00 0.00 0.00 47 1014.2
20220812071515 16 360 4.8 12.9 0.00 0.00 0.00 46 1014.2
20220812070020 16 360 4.8 9.7 0.00 0.00 0.00 46 1014.4
20220812064520 17 360 3.2 14.5 0.00 0.00 0.00 44 1014.6
20220812063019 17 360 1.6 12.9 0.00 0.00 0.00 43 1014.6
20220812061504 17 360 3.2 16.1 0.00 0.00 0.00 42 1014.7
20220812060003 17 360 8.0 17.7 0.00 0.00 0.00 43 1014.6
20220812054504 17 360 8.0 14.5 0.00 0.00 0.00 42 1014.5
20220812053004 17 360 8.0 19.3 0.00 0.00 0.00 42 1014.5
20220812051500 17 360 8.0 14.5 0.00 0.00 0.00 42 1014.5
20220812050113 18 360 6.4 14.5 0.00 0.00 0.00 42 1014.6
20220812044631 18 360 6.4 14.5 0.00 0.00 0.00 42 1014.6
20220812043059 18 360 11.3 20.9 0.00 0.00 0.00 42 1014.8
20220812041605 17 360 6.4 19.3 0.00 0.00 0.00 43 1014.6
20220812040138 17 360 8.0 16.1 0.00 0.00 0.00 46 1014.7
20220812034604 17 360 9.7 22.5 0.00 0.00 0.00 48 1014.5
20220812033105 18 256 3.2 6.4 0.00 0.00 0.00 47 1014.5
20220812031609 18 360 1.6 6.4 0.00 0.00 0.00 49 1014.3
20220812030105 18 360 1.6 4.8 0.00 0.00 0.00 47 1014.4
20220812024556 19 360 3.2 11.3 0.00 0.00 0.00 47 1014.2
20220812023128 20 360 4.8 11.3 0.00 0.00 0.00 44 1013.9
20220812021617 20 290 4.8 9.7 0.00 0.00 0.00 43 1013.9
20220812020054 21 290 3.2 8.0 0.00 0.00 0.00 41 1013.8
20220812014604 22 360 4.8 8.0 0.00 0.00 0.00 40 1013.8
20220812013057 22 360 1.6 6.4 0.00 0.00 0.00 37 1013.8
20220812011559 23 35 0.0 1.6 0.00 0.00 0.00 35 1013.8
20220812010100 23 360 0.0 3.2 0.00 0.00 0.00 32 1013.8
20220812004605 23 360 0.0 6.4 0.00 0.00 0.00 31 1013.9
20220812003108 24 360 1.6 9.7 0.00 0.00 0.00 31 1013.8
20220812001549 24 360 0.0 11.3 0.00 0.00 0.00 33 1013.8
20220812000048 24 360 3.2 8.0 0.00 0.00 0.00 33 1014.0
20220811234555 25 360 1.6 8.0 0.00 0.00 0.00 34 1013.9
20220811233100 25 360 1.6 6.4 0.00 0.00 0.00 34 1014.1
20220811231549 25 360 3.2 11.3 0.00 0.00 0.00 33 1014.2
20220811230046 25 360 0.0 11.3 0.00 0.00 0.00 33 1014.3
20220811224603 25 360 3.2 11.3 0.00 0.00 0.00 33 1014.3
20220811223058 25 360 1.6 14.5 0.00 0.00 0.00 32 1014.1
20220811221549 25 360 4.8 14.5 0.00 0.00 0.00 31 1014.2
20220811220044 26 360 4.8 16.1 0.00 0.00 0.00 30 1014.3
20220811214543 26 360 4.8 20.9 0.00 0.00 0.00 30 1014.2
20220811213117 27 360 4.8 17.7 0.00 0.00 0.00 28 1014.2
20220811211601 27 360 6.4 16.1 0.00 0.00 0.00 27 1014.4
20220811210047 27 360 6.4 17.7 0.00 0.00 0.00 26 1014.3
20220811204545 27 360 3.2 19.3 0.00 0.00 0.00 27 1014.3
20220811203048 27 360 8.0 16.1 0.00 0.00 0.00 26 1014.6
20220811201543 27 360 4.8 17.7 0.00 0.00 0.00 27 1014.8
20220811200039 27 360 8.0 17.7 0.00 0.00 0.00 26 1015.0
20220811194542 27 360 6.4 14.5 0.00 0.00 0.00 28 1015.1
20220811193035 27 360 6.4 19.3 0.00 0.00 0.00 29 1015.3
20220811191546 27 360 4.8 19.3 0.00 0.00 0.00 29 1015.2
20220811190031 27 360 4.8 16.1 0.00 0.00 0.00 29 1015.2
20220811184528 27 360 8.0 16.1 0.00 0.00 0.00 29 1015.3
20220811183027 26 360 9.7 17.7 0.00 0.00 0.00 30 1015.4
20220811181533 27 360 4.8 14.5 0.00 0.00 0.00 30 1015.7
20220811180023 27 360 4.8 16.1 0.00 0.00 0.00 32 1015.7
20220811174541 26 360 4.8 14.5 0.00 0.00 0.00 32 1016.0
20220811173017 25 28 3.2 14.5 0.00 0.00 0.00 32 1016.1